User: anonymous   Login
Location: Unspecified
(0.0000°N, 0.0000°E)
Time: 11:45:41
(UTC+01:00)
Language:

Cosmos 1536 - Orbit

View from above orbital plane
View from above orbital plane
View from above satellite
View from above satellite

Ground track
Ground track

The orbit data is extracted from the following two-line orbital elements,

1 14699U 84013A   16041.20191291  .00001794  00000-0  12599-3 0  9992
2 14699  82.5242  86.6509 0011583 300.3443  59.6637 15.04510985738959
Epoch (UTC): 10 February 2016 04:50:45
Eccentricity: 0.0011583
inclination: 82.5242°
perigee height: 545 km
apogee height: 561 km
right ascension of ascending node: 86.6509°
argument of perigee: 300.3443°
revolutions per day: 15.04510985
mean anomaly at epoch: 59.6637°
orbit number at epoch: 73895

The dashed part of the orbit path shows where the satellite is in the earth's shadow,  

DLR